Location: Augsburg
(48.3836°N, 10.8929°E)
Time: 06:13:59
(UTC+01:00)

ISS - Pass Details

Date: 05 December 2021
Orbit: 413 x 423 km, 51.6° (Epoch: 20 January)

Event Time Altitude Azimuth Distance (km) Brightness Sun altitude
Rises 17:06:16 0° 290° (WNW) 2,384 0.8 -7.1°
Reaches altitude 10° 17:08:23 10° 293° (WNW) 1,516 -0.3 -7.4°
Maximum altitude 17:11:47 76° 19° (NNE) 441 -3.8 -8.0°
Drops below altitude 10° 17:15:10 10° 106° (ESE) 1,505 -1.4 -8.5°
Enters shadow 17:16:00 - 107° (ESE) 1,848 -0.9 -8.6°
